Change the Weather History Date:

Saturday, June 22, 2013

  Actual Average (KHOB) Record (KHOB)
Temperature  
Mean Temperature 84 °F -  
Max Temperature 99 °F 91 °F 104 °F (2003)
Min Temperature 70 °F 65 °F 62 °F (1949)
Cooling Degree Days 20    
Growing Degree Days 34 (Base 50)    
Moisture  
Dew Point 56 °F    
Average Humidity 40    
Maximum Humidity 60    
Minimum Humidity 18    
Precipitation  
Precipitation 0.00 in - - ()
Sea Level Pressure  
Sea Level Pressure 29.96 in    
Wind  
Wind Speed 15 mph (South)    
Max Wind Speed 28 mph    
Max Gust Speed 32 mph    
Visibility 10 miles    
Events      
Averages and records for this station are not official NWS values.
T = Trace of Precipitation, MM = Missing Value Source: NWS Daily Summary

Daily Weather History Graph

Daily Weather History Graph

Search for Another Location

Airport or City:

Trip Planner

Search our weather history database for the weather conditions in past years. The results will help you decide how hot, cold, wet, or windy it might be!

Date:

Astronomy

Jun. 22, 2013 Rise Set
Actual Time 6:43 AM CDT 9:01 PM CDT
Civil Twilight 6:14 AM CDT 9:30 PM CDT
Nautical Twilight 5:39 AM CDT 10:05 PM CDT
Astronomical Twilight 5:01 AM CDT 10:43 PM CDT
Moon 8:22 PM CDT (6/22) 5:55 AM CDT (6/22)
Length of Visible Light 15h 15m
Length of Day
14h 18m
Waxing Gibbous, 99% of the Moon is Illuminated
Jun 22
Waxing Gibbous
Jun 23
Full
Jun 29
Last Quarter
Jul 8
New
Jul 15
First Quarter

Hourly Weather History & Observations

Time (CDT) Temp. Heat Index Dew Point Humidity Pressure Visibility Wind Dir Wind Speed Gust Speed Precip Events Conditions
12:15 AM 77.2 °F - 62.1 °F 59% 30.03 in 10.0 mi SSE 21.9 mph 26.5 mph N/A   Clear
12:35 AM 77.0 °F - 61.0 °F 58% 30.04 in 10.0 mi South 27.6 mph 32.2 mph N/A   Clear
12:55 AM 76.5 °F - 61.2 °F 59% 30.04 in 10.0 mi South 18.4 mph - N/A   Clear
1:15 AM 76.3 °F - 60.8 °F 59% 30.03 in 10.0 mi South 18.4 mph 25.3 mph N/A   Clear
1:35 AM 76.3 °F - 60.1 °F 57% 30.04 in 10.0 mi South 11.5 mph - N/A   Clear
1:55 AM 76.3 °F - 59.5 °F 56% 30.04 in 10.0 mi South 5.8 mph - N/A   Clear
2:15 AM 76.3 °F - 59.0 °F 55% 30.01 in 10.0 mi SE 10.4 mph - N/A   Clear
2:35 AM 75.7 °F - 58.3 °F 55% 29.99 in 10.0 mi SSE 13.8 mph - N/A   Clear
2:55 AM 75.7 °F - 57.6 °F 53% 29.97 in 10.0 mi South 13.8 mph 19.6 mph N/A   Clear
3:15 AM 75.4 °F - 56.8 °F 52% 29.96 in 10.0 mi South 15.0 mph 20.7 mph N/A   Clear
3:35 AM 75.2 °F - 56.3 °F 52% 29.96 in 10.0 mi South 13.8 mph 17.3 mph N/A   Clear
3:55 AM 74.7 °F - 55.8 °F 52% 29.96 in 10.0 mi South 13.8 mph 18.4 mph N/A   Clear
4:15 AM 74.3 °F - 55.6 °F 52% 29.97 in 10.0 mi South 12.7 mph - N/A   Clear
4:35 AM 73.9 °F - 55.4 °F 52% 29.97 in 10.0 mi South 11.5 mph - N/A   Clear
4:55 AM 73.4 °F - 55.4 °F 53% 29.97 in 10.0 mi SSW 9.2 mph - N/A   Clear
5:15 AM 73.4 °F - 55.4 °F 53% 29.98 in 10.0 mi South 10.4 mph - N/A   Clear
5:35 AM 73.0 °F - 55.4 °F 54% 29.97 in 10.0 mi South 9.2 mph - N/A   Clear
5:55 AM 72.5 °F - 55.4 °F 55% 29.98 in 10.0 mi South 8.1 mph - N/A   Clear
6:15 AM 71.8 °F - 55.8 °F 57% 29.98 in 10.0 mi South 6.9 mph - N/A   Clear
6:35 AM 71.6 °F - 55.9 °F 58% 30.00 in 10.0 mi South 4.6 mph - N/A   Clear
6:55 AM 70.9 °F - 56.5 °F 60% 30.00 in 10.0 mi Calm Calm - N/A   Clear
7:15 AM 71.2 °F - 56.7 °F 60% 30.00 in 10.0 mi South 6.9 mph - N/A   Clear
7:35 AM 72.3 °F - 56.8 °F 58% 29.99 in 10.0 mi South 10.4 mph - N/A   Clear
7:55 AM 73.6 °F - 57.2 °F 56% 30.00 in 10.0 mi South 10.4 mph 16.1 mph N/A   Clear
8:15 AM 74.5 °F - 57.2 °F 55% 30.00 in 10.0 mi South 15.0 mph - N/A   Clear
8:35 AM 75.2 °F - 57.6 °F 54% 30.01 in 10.0 mi SSW 16.1 mph - N/A   Clear
8:55 AM 76.3 °F - 58.1 °F 53% 30.01 in 10.0 mi South 13.8 mph - N/A   Clear
9:15 AM 77.5 °F - 58.3 °F 51% 30.01 in 10.0 mi South 13.8 mph - N/A   Clear
9:35 AM 79.2 °F - 58.6 °F 49% 30.00 in 10.0 mi South 16.1 mph - N/A   Clear
9:55 AM 80.8 °F 81.2 °F 58.8 °F 47% 30.00 in 10.0 mi South 13.8 mph 17.3 mph N/A   Clear
10:15 AM 82.4 °F 82.5 °F 59.0 °F 45% 30.00 in 10.0 mi South 13.8 mph - N/A   Clear
10:35 AM 83.8 °F 83.8 °F 59.5 °F 44% 30.00 in 10.0 mi South 15.0 mph 18.4 mph N/A   Clear
10:55 AM 85.5 °F 85.0 °F 59.0 °F 41% 29.99 in 10.0 mi SSW 16.1 mph 20.7 mph N/A   Clear
11:15 AM 86.9 °F 86.1 °F 58.1 °F 38% 30.00 in 10.0 mi SSW 13.8 mph 21.9 mph N/A   Clear
11:35 AM 88.2 °F 86.9 °F 57.6 °F 35% 30.00 in 10.0 mi SW 12.7 mph 21.9 mph N/A   Clear
11:55 AM 90.0 °F 88.3 °F 56.7 °F 32% 30.00 in 10.0 mi SSW 15.0 mph 20.7 mph N/A   Clear
12:15 PM 91.2 °F 89.6 °F 57.0 °F 31% 29.99 in 10.0 mi SSW 15.0 mph 19.6 mph N/A   Clear
12:35 PM 91.8 °F 90.0 °F 56.3 °F 30% 29.99 in 10.0 mi South 11.5 mph 19.6 mph N/A   Clear
12:55 PM 92.7 °F 90.9 °F 56.1 °F 29% 29.98 in 10.0 mi SSW 16.1 mph 19.6 mph N/A   Clear
1:15 PM 93.4 °F 91.3 °F 55.0 °F 27% 29.98 in 10.0 mi SSW 11.5 mph 18.4 mph N/A   Clear
1:35 PM 94.1 °F 91.9 °F 53.8 °F 26% 29.98 in 10.0 mi SSW 11.5 mph 20.7 mph N/A   Clear
1:55 PM 94.8 °F 92.5 °F 53.6 °F 25% 29.97 in 10.0 mi South 10.4 mph 18.4 mph N/A   Clear
2:15 PM 95.5 °F 93.1 °F 53.2 °F 24% 29.96 in 10.0 mi SSW 13.8 mph 18.4 mph N/A   Clear
2:35 PM 95.9 °F - 52.9 °F 23% 29.96 in 10.0 mi SW 12.7 mph 20.7 mph N/A   Clear
2:55 PM 97.2 °F - 51.3 °F 21% 29.95 in 10.0 mi SSW 9.2 mph 16.1 mph N/A   Clear
3:15 PM 97.2 °F - 51.8 °F 22% 29.94 in 10.0 mi South 13.8 mph 20.7 mph N/A   Clear
3:35 PM 97.9 °F - 50.2 °F 20% 29.93 in 10.0 mi SSE 4.6 mph 10.4 mph N/A   Clear
3:55 PM 98.4 °F - 49.5 °F 19% 29.93 in 10.0 mi SSW 8.1 mph 17.3 mph N/A   Clear
4:15 PM 98.6 °F - 48.6 °F 18% 29.92 in 10.0 mi South 6.9 mph 21.9 mph N/A   Clear
4:35 PM 99.0 °F - 49.1 °F 18% 29.91 in 10.0 mi SSE 6.9 mph 18.4 mph N/A   Clear
4:55 PM 96.8 °F - 48.0 °F 19% 29.90 in 10.0 mi South 11.5 mph - N/A   Clear
5:15 PM 99.0 °F - 50.2 °F 19% 29.89 in 10.0 mi South 9.2 mph 19.6 mph N/A   Clear
5:35 PM 98.6 °F - 49.3 °F 19% 29.88 in 10.0 mi SSE 10.4 mph 18.4 mph N/A   Clear
5:55 PM 97.9 °F - 49.3 °F 19% 29.88 in 10.0 mi SSW 11.5 mph 20.7 mph N/A   Clear
6:15 PM 97.7 °F - 51.1 °F 21% 29.87 in 10.0 mi SSE 16.1 mph 20.7 mph N/A   Clear
6:35 PM 98.2 °F - 52.0 °F 21% 29.86 in 10.0 mi South 18.4 mph 25.3 mph N/A   Clear
6:55 PM 96.8 °F 94.7 °F 54.0 °F 24% 29.86 in 10.0 mi SSE 18.4 mph 24.2 mph N/A   Clear
7:15 PM 94.1 °F 92.2 °F 55.6 °F 27% 29.86 in 10.0 mi SSE 18.4 mph 24.2 mph N/A   Clear
7:35 PM 92.5 °F 91.0 °F 57.0 °F 30% 29.87 in 10.0 mi South 21.9 mph 31.1 mph N/A   Clear
7:55 PM 91.4 °F 89.9 °F 57.0 °F 31% 29.87 in 10.0 mi SSE 25.3 mph 31.1 mph N/A   Clear
8:15 PM 90.5 °F 89.0 °F 56.7 °F 32% 29.87 in 10.0 mi SSE 21.9 mph 31.1 mph N/A   Clear
8:35 PM 89.6 °F 87.9 °F 56.5 °F 32% 29.88 in 10.0 mi SSE 18.4 mph 26.5 mph N/A   Clear
8:55 PM 88.9 °F 87.3 °F 56.5 °F 33% 29.89 in 10.0 mi South 18.4 mph 26.5 mph N/A   Clear
9:15 PM 87.6 °F 86.3 °F 56.8 °F 35% 29.89 in 10.0 mi South 21.9 mph 31.1 mph N/A   Clear
9:35 PM 86.0 °F 85.0 °F 57.4 °F 38% 29.90 in 10.0 mi South 21.9 mph 26.5 mph N/A   Clear
9:55 PM 84.9 °F 84.1 °F 57.4 °F 39% 29.91 in 10.0 mi SSE 19.6 mph 26.5 mph N/A   Clear
10:15 PM 83.7 °F 83.1 °F 57.6 °F 41% 29.92 in 10.0 mi South 18.4 mph 24.2 mph N/A   Clear
10:35 PM 82.6 °F 82.2 °F 57.0 °F 42% 29.93 in 10.0 mi SSE 18.4 mph 26.5 mph N/A   Clear
10:55 PM 81.7 °F 81.4 °F 56.3 °F 42% 29.94 in 10.0 mi South 16.1 mph 24.2 mph N/A   Clear
11:15 PM 81.0 °F 80.9 °F 56.3 °F 43% 29.95 in 10.0 mi South 18.4 mph 24.2 mph N/A   Clear
11:35 PM 80.4 °F 80.5 °F 55.9 °F 43% 29.95 in 10.0 mi South 18.4 mph 24.2 mph N/A   Clear
11:55 PM 79.5 °F - 56.3 °F 45% 29.95 in 10.0 mi South 13.8 mph - N/A   Clear